Location: Waco, TX
(31.5480°N, 97.1670°W)
Time: 19:33:07
(UTC-06:00)

ISS - Visible Passes

Search period start: 18 January 2018 00:00
Search period end: 28 January 2018 00:00
Orbit: 402 x 407 km, 51.6° (Epoch: 19 January)

Date Brightness Start Highest point End Pass type
(mag) Time Alt. Az. Time Alt. Az. Time Alt. Az.
18 Jan -1.0 05:13:29 18° E 05:13:29 18° E 05:14:37 10° ESE visible
18 Jan -1.6 06:46:11 10° W 06:47:43 13° SW 06:49:22 10° SSW visible
19 Jan -2.2 05:56:34 24° SSW 05:56:34 24° SSW 05:58:29 10° S visible
21 Jan -1.8 19:08:46 10° S 19:10:18 16° SE 19:10:18 16° SE visible
22 Jan -1.9 19:51:41 10° SW 19:53:26 29° WSW 19:53:26 29° WSW visible
23 Jan -3.6 18:59:27 10° SSW 19:02:37 52° SE 19:03:46 32° ENE visible
24 Jan -1.8 19:44:05 10° W 19:46:43 23° NW 19:46:43 23° NW visible
25 Jan -3.0 18:51:11 10° WSW 18:54:20 47° NW 18:56:52 14° NNE visible
26 Jan -1.0 19:37:45 10° NW 19:38:46 11° NNW 19:39:36 10° NNW visible
27 Jan -1.5 18:43:45 10° W 18:46:10 19° NW 18:48:36 10° NNE visible
